This demonstration page uses our WeatherBlox Daily Observations layout. Learn more.

Left ArrowRight Arrow

39.95238, -75.16362

Hourly Observations for April 30, 2015

Temp ( °F °C ) Dew Point ( °F °C ) Humidity (%) Winds ( mph kmh ) Pressure ( in mb ) Visibility ( mi km ) Precip ( " mm )
12:54 am 00:54 Cloudy 62 16.7 45 7.2 54 54 SW 6 9 29.69 1005 10 16 0.00 0.00
1:54 am 01:54 Cloudy 60 15.6 46 7.8 60 60 WSW 6 9 29.68 1005 10 16 0.00 0.00
2:54 am 02:54 Mostly Cloudy 57 13.9 45 7.2 64 64 ENE 7 11 29.69 1005 10 16 0.00 0.00
3:54 am 03:54 Mostly Clear 53 11.7 45 7.2 74 74 ENE 8 13 29.69 1005 10 16 0.00 0.00
4:54 am 04:54 Mostly Clear 52 11.1 44 6.7 75 75 NE 10 17 29.70 1006 10 16 0.00 0.00
5:54 am 05:54 Partly Cloudy 50 10 43 6.1 77 77 NE 9 15 29.71 1006 10 16 0.00 0.00
6:54 am 06:54 Mostly Cloudy 50 10 42 5.6 74 74 NE 12 19 29.72 1007 10 16 0.00 0.00
7:54 am 07:54 Mostly Cloudy 52 11.1 43 6.1 72 72 NE 10 17 29.74 1007 10 16 0.00 0.00
8:54 am 08:54 Mostly Cloudy 56 13.3 44 6.7 65 65 ENE 8 13 29.75 1007 10 16 0.00 0.00
9:54 am 09:54 Mostly Cloudy 59 15 45 7.2 60 60 NNE 13 20 29.75 1007 10 16 0.00 0.00
10:54 am 10:54 Mostly Cloudy 63 17.2 47 8.3 56 56 NE 12 19 29.75 1007 10 16 0.00 0.00
11:54 am 11:54 Mostly Cloudy 66 18.9 48 8.9 52 52 NE 12 19 29.75 1007 10 16 0.00 0.00
12:54 pm 12:54 Mostly Cloudy 68 20 49 9.4 51 51 NE 15 24 29.74 1007 10 16 0.00 0.00
1:54 pm 13:54 Mostly Cloudy 71 21.7 51 10.6 49 49 NE 14 22 29.73 1007 10 16 0.00 0.00
2:54 pm 14:54 Mostly Cloudy 71 21.7 51 10.6 49 49 ENE 14 22 29.73 1007 10 16 0.00 0.00
3:54 pm 15:54 Mostly Cloudy 65 18.3 48 8.9 54 54 E 16 26 29.74 1007 10 16 0.00 0.00
4:54 pm 16:54 Mostly Cloudy 62 16.7 46 7.8 56 56 ENE 14 22 29.77 1008 10 16 0.00 0.00
5:54 pm 17:54 Mostly Cloudy 61 16.1 45 7.2 56 56 ENE 15 24 29.78 1008 10 16 0.00 0.00
6:54 pm 18:54 Mostly Cloudy 59 15 45 7.2 60 60 ENE 15 24 29.79 1009 10 16 0.00 0.00
7:54 pm 19:54 Mostly Cloudy 56 13.3 44 6.7 65 65 ENE 14 22 29.81 1010 10 16 0.00 0.00
8:54 pm 20:54 Mostly Cloudy 55 12.8 43 6.1 64 64 E 15 24 29.84 1011 10 16 0.00 0.00
9:54 pm 21:54 Mostly Cloudy 54 12.2 42 5.6 64 64 ENE 8 13 29.86 1011 10 16 0.00 0.00
10:33 pm 22:33 Mostly Cloudy 54 12.2 41 5 62 62 ENE 8 13 29.88 1012 10 16 0.00 0.00
10:54 pm 22:54 Cloudy 54 12.2 41 5 62 62 ENE 10 17 29.87 1012 10 16 0.00 0.00
11:39 pm 23:39 Mostly Cloudy 54 12.2 40 4.4 59 59 ENE 9 15 29.88 1012 10 16 0.00 0.00
11:54 pm 23:54 Mostly Cloudy 54 12.2 40 4.4 59 59 ENE 8 13 29.88 1012 10 16 0.00 0.00

Powered by AerisWeather